TimeCDT,TemperatureF,Dew PointF,Humidity,Sea Level PressureIn,VisibilityMPH,Wind Direction,Wind SpeedMPH,Gust SpeedMPH,PrecipitationIn,Events,Conditions,WindDirDegrees,DateUTC
12:15 AM,80.1,70.3,72,30.00,10.0,South,4.6,-,N/A,,Clear,190,2013-08-26 05:15:00
12:35 AM,79.2,70.7,75,30.01,10.0,South,3.5,-,N/A,,Clear,190,2013-08-26 05:35:00
12:55 AM,79.0,70.7,76,30.01,10.0,South,4.6,-,N/A,,Mostly Cloudy,180,2013-08-26 05:55:00
1:15 AM,79.2,70.7,75,30.01,10.0,South,3.5,-,N/A,,Overcast,170,2013-08-26 06:15:00
1:35 AM,79.0,70.5,75,30.00,10.0,South,4.6,-,N/A,,Overcast,180,2013-08-26 06:35:00
1:55 AM,79.3,70.5,74,29.99,10.0,South,4.6,-,N/A,,Overcast,190,2013-08-26 06:55:00
2:15 AM,78.8,70.3,75,29.98,10.0,South,6.9,-,N/A,,Overcast,190,2013-08-26 07:15:00
2:35 AM,78.8,70.3,75,29.99,10.0,South,5.8,-,N/A,,Overcast,190,2013-08-26 07:35:00
2:55 AM,79.0,70.5,75,29.99,10.0,SSW,4.6,-,N/A,,Overcast,210,2013-08-26 07:55:00
3:15 AM,79.0,70.7,76,30.00,10.0,SSW,5.8,-,N/A,,Overcast,210,2013-08-26 08:15:00
3:35 AM,79.0,70.7,76,30.00,10.0,SSW,5.8,-,N/A,,Overcast,200,2013-08-26 08:35:00
3:55 AM,79.0,70.7,76,29.99,10.0,SSW,5.8,-,N/A,Thunderstorm,Overcast,200,2013-08-26 08:55:00
4:15 AM,79.0,70.7,76,29.99,10.0,SSW,6.9,-,N/A,,Overcast,210,2013-08-26 09:15:00
4:35 AM,79.0,70.9,76,29.99,10.0,SSW,6.9,-,N/A,,Overcast,210,2013-08-26 09:35:00
4:55 AM,78.8,70.9,77,29.99,10.0,SSW,6.9,-,N/A,,Scattered Clouds,210,2013-08-26 09:55:00
5:15 AM,78.3,70.9,78,30.00,10.0,SSW,6.9,-,N/A,,Clear,200,2013-08-26 10:15:00
5:35 AM,77.9,70.9,79,30.00,10.0,SSW,5.8,-,N/A,Thunderstorm,Scattered Clouds,210,2013-08-26 10:35:00
5:55 AM,77.9,70.9,79,29.99,10.0,SSW,5.8,-,N/A,Thunderstorm,Scattered Clouds,210,2013-08-26 10:55:00
6:15 AM,77.5,70.9,80,30.00,10.0,SSW,8.1,-,N/A,Thunderstorm,Scattered Clouds,200,2013-08-26 11:15:00
6:35 AM,77.7,70.9,79,30.01,10.0,South,4.6,-,N/A,Thunderstorm,Mostly Cloudy,180,2013-08-26 11:35:00
6:55 AM,77.2,70.9,81,30.03,10.0,North,5.8,-,N/A,Thunderstorm,Mostly Cloudy,10,2013-08-26 11:55:00
7:15 AM,77.9,71.1,79,30.04,10.0,ENE,4.6,-,N/A,Thunderstorm,Thunderstorm,60,2013-08-26 12:15:00
7:35 AM,77.4,71.1,81,30.05,10.0,East,8.1,-,N/A,Thunderstorm,Thunderstorm,90,2013-08-26 12:35:00
7:55 AM,76.1,69.1,79,30.04,10.0,ESE,8.1,-,N/A,,Overcast,110,2013-08-26 12:55:00
8:15 AM,76.1,69.3,79,30.04,10.0,ESE,5.8,-,N/A,,Overcast,120,2013-08-26 13:15:00
8:35 AM,76.3,69.3,79,30.04,10.0,SE,9.2,-,N/A,,Overcast,130,2013-08-26 13:35:00
8:55 AM,75.6,68.4,78,30.05,10.0,SE,10.4,-,N/A,,Overcast,130,2013-08-26 13:55:00
9:15 AM,75.2,68.0,78,30.03,10.0,SE,11.5,-,N/A,,Overcast,130,2013-08-26 14:15:00
9:35 AM,75.9,68.2,77,30.03,10.0,SE,10.4,-,N/A,,Scattered Clouds,140,2013-08-26 14:35:00
9:55 AM,76.6,68.9,77,30.03,10.0,SE,10.4,-,N/A,,Clear,140,2013-08-26 14:55:00
10:15 AM,77.0,70.2,79,30.03,10.0,SE,8.1,-,N/A,Rain,Light Rain,140,2013-08-26 15:15:00
10:35 AM,77.9,70.0,76,30.03,10.0,SE,10.4,-,N/A,,Clear,140,2013-08-26 15:35:00
10:55 AM,78.8,70.2,75,30.03,10.0,SE,8.1,-,N/A,,Scattered Clouds,130,2013-08-26 15:55:00
11:15 AM,79.3,70.2,73,30.03,10.0,SE,9.2,-,N/A,,Scattered Clouds,130,2013-08-26 16:15:00
11:35 AM,79.3,70.7,75,30.03,10.0,SE,8.1,-,N/A,,Clear,140,2013-08-26 16:35:00
11:55 AM,79.9,70.7,73,30.02,10.0,ESE,8.1,-,N/A,,Clear,110,2013-08-26 16:55:00
12:15 PM,80.8,70.9,72,30.01,10.0,SE,9.2,-,N/A,,Clear,140,2013-08-26 17:15:00
12:35 PM,81.7,71.1,70,30.00,10.0,ESE,8.1,-,N/A,,Clear,110,2013-08-26 17:35:00
12:55 PM,83.3,71.6,68,30.00,10.0,ESE,5.8,-,N/A,,Scattered Clouds,120,2013-08-26 17:55:00
1:15 PM,84.7,71.8,65,29.99,10.0,SSE,8.1,-,N/A,,Mostly Cloudy,150,2013-08-26 18:15:00
1:35 PM,87.8,71.6,58,29.98,10.0,South,6.9,-,N/A,,Scattered Clouds,190,2013-08-26 18:35:00
1:55 PM,89.1,71.6,56,29.98,10.0,SSE,10.4,-,N/A,,Scattered Clouds,160,2013-08-26 18:55:00
2:15 PM,88.9,70.9,55,29.97,10.0,South,10.4,-,N/A,,Mostly Cloudy,180,2013-08-26 19:15:00
2:35 PM,89.8,70.9,54,29.96,10.0,South,5.8,16.1,N/A,,Scattered Clouds,180,2013-08-26 19:35:00
2:55 PM,90.0,70.9,53,29.96,10.0,SSW,8.1,-,N/A,,Scattered Clouds,210,2013-08-26 19:55:00
3:15 PM,89.4,70.5,54,29.96,10.0,SW,5.8,-,N/A,,Mostly Cloudy,220,2013-08-26 20:15:00
3:35 PM,89.2,70.5,54,29.94,10.0,SSE,6.9,-,N/A,,Scattered Clouds,150,2013-08-26 20:35:00
3:55 PM,88.9,71.2,56,29.94,10.0,SSW,5.8,-,N/A,,Clear,210,2013-08-26 20:55:00
4:15 PM,88.9,71.2,56,29.92,10.0,SSE,6.9,-,N/A,,Clear,160,2013-08-26 21:15:00
4:35 PM,89.6,71.2,55,29.93,10.0,SE,4.6,-,N/A,,Clear,140,2013-08-26 21:35:00
4:55 PM,91.4,70.7,51,29.93,10.0,South,8.1,-,N/A,,Clear,170,2013-08-26 21:55:00
5:15 PM,91.6,71.1,51,29.92,10.0,SSE,4.6,-,N/A,,Clear,150,2013-08-26 22:15:00
5:35 PM,92.3,71.4,50,29.92,10.0,SSE,6.9,-,N/A,,Clear,160,2013-08-26 22:35:00
5:55 PM,90.5,70.7,52,29.91,10.0,SSE,8.1,-,N/A,,Clear,160,2013-08-26 22:55:00
6:15 PM,91.4,71.2,51,29.90,10.0,SSE,8.1,-,N/A,,Clear,160,2013-08-26 23:15:00
6:35 PM,90.5,71.6,54,29.91,10.0,South,6.9,-,N/A,,Clear,170,2013-08-26 23:35:00
6:55 PM,88.7,71.6,57,29.90,10.0,SSE,6.9,-,N/A,,Clear,150,2013-08-26 23:55:00
7:15 PM,87.4,72.0,60,29.90,10.0,SSE,5.8,-,N/A,,Clear,160,2013-08-27 00:15:00
7:35 PM,86.7,71.6,61,29.90,10.0,South,6.9,-,N/A,,Clear,170,2013-08-27 00:35:00
7:55 PM,85.3,71.8,64,29.89,10.0,SSE,6.9,-,N/A,,Clear,150,2013-08-27 00:55:00
8:15 PM,84.7,71.6,65,29.90,10.0,SSE,4.6,-,N/A,,Clear,150,2013-08-27 01:15:00
8:35 PM,83.7,71.8,67,29.92,10.0,SSE,4.6,-,N/A,,Clear,160,2013-08-27 01:35:00
8:55 PM,83.8,71.6,66,29.91,10.0,South,8.1,-,N/A,,Clear,170,2013-08-27 01:55:00
9:15 PM,84.4,71.6,65,29.91,10.0,South,5.8,-,N/A,,Clear,170,2013-08-27 02:15:00
9:35 PM,83.5,72.0,68,29.91,10.0,SE,4.6,-,N/A,Thunderstorm,Clear,140,2013-08-27 02:35:00
9:55 PM,83.5,72.0,68,29.91,10.0,Calm,Calm,-,N/A,,Clear,0,2013-08-27 02:55:00
10:15 PM,82.0,72.5,73,29.92,10.0,NE,4.6,-,N/A,Thunderstorm,Clear,50,2013-08-27 03:15:00
10:35 PM,80.8,72.5,76,29.93,10.0,NNE,8.1,-,N/A,Thunderstorm,Clear,30,2013-08-27 03:35:00
10:55 PM,79.9,72.5,78,29.93,10.0,NE,3.5,-,N/A,Thunderstorm,Clear,40,2013-08-27 03:55:00
11:15 PM,79.3,72.5,79,29.93,10.0,Calm,Calm,-,N/A,Thunderstorm,Clear,0,2013-08-27 04:15:00
11:35 PM,79.7,72.9,80,29.92,10.0,East,6.9,-,N/A,,Clear,90,2013-08-27 04:35:00
11:55 PM,80.2,73.2,79,29.92,10.0,ESE,4.6,-,N/A,,Mostly Cloudy,110,2013-08-27 04:55:00